Location: Cherry Springs State Park
(41.6616°N, 77.8240°W)
Time: 21:54:16
(UTC-05:00)

Daily predictions for brighter satellites

Satellite Brightness Start Highest point End
(mag) Time Altitude Azimuth Time Altitude Azimuth Time Altitude Azimuth
PAYLOAD A 3.9 17:06:24 10° SSE 17:11:08 67° ENE 17:16:06 10° N
CSL-04 Rocket 4.4 17:11:57 10° S 17:17:19 60° W 17:22:47 10° NNW
Tiangong 1 3.4 17:21:47 10° S 17:23:10 12° SE 17:24:32 10° ESE
USA 234 3.4 17:17:29 10° NE 17:24:03 81° NW 17:30:35 10° SW
SPOT 3 Rocket 3.6 17:20:07 10° SSE 17:25:14 63° ENE 17:30:22 10° N
Okean 1 4.3 17:23:38 10° SSE 17:27:02 27° E 17:30:29 10° NNE
Cosmos 372 Rocket 4.5 17:22:21 10° SSW 17:27:33 64° WNW 17:32:48 10° NNE
Cosmos 1536 3.7 17:24:09 10° NNW 17:28:09 54° W 17:32:07 10° S
YAOGAN 1 2.6 17:24:00 10° SSE 17:28:14 56° ENE 17:32:29 10° N
Cosmos 1844 Rocket 2.7 17:25:13 10° SSW 17:30:48 88° WNW 17:36:29 10° NNE
Cosmos 1812 3.1 17:27:43 10° SSE 17:31:20 40° E 17:34:59 10° NNE
BREEZE M DEB (TANK) 4.3 17:21:47 10° SSW 17:32:17 37° SSE 17:35:33 13° E
COSMOS 2487 4.0 17:33:33 10° NNE 17:36:04 18° ENE 17:38:33 10° ESE
AQUARIUS 4.1 17:32:57 10° SSE 17:37:26 79° ENE 17:41:57 10° N
USA 32 4.0 17:32:45 10° S 17:37:57 78° E 17:43:11 10° N
NOSS 3-3 (A) 4.3 17:32:11 10° S 17:38:03 48° ESE 17:44:00 11° NE
Meteor 2-19 Rocket 4.4 17:32:02 10° N 17:38:08 78° E 17:44:10 10° SSE
NOSS 3-3 (C) 4.3 17:32:18 10° S 17:38:09 48° ESE 17:44:05 11° NE
SL-8 Rocket 4.0 17:33:30 10° N 17:39:41 88° ENE 17:45:51 10° S
ISS -2.3 17:36:36 10° W 17:39:42 38° NNW 17:42:12 14° NE
Cosmos 1346 Rocket 3.8 17:39:46 10° SSE 17:43:01 25° E 17:45:20 15° NE
IDEFIX/ARIANE 42P 2.6 17:40:33 10° SSE 17:45:45 89° WSW 17:50:59 10° NNW
CORIOLIS 4.1 17:40:47 10° SSE 17:46:12 83° ENE 17:51:37 10° NNW
ATLAS 2AS CENTAUR R/B 3.0 17:38:29 10° NW 17:46:38 85° NE 17:54:12 10° SE
ASTRO F (AKARI) 4.4 17:43:42 10° NNE 17:46:47 51° E 17:49:51 10° S
Cosmos 494 Rocket 3.9 17:41:39 10° NNW 17:46:54 70° ENE 17:52:08 10° SSE
Cosmos 1844 3.7 17:41:59 10° SSW 17:47:34 87° WNW 17:53:09 10° NNE
Cosmos 1455 Rocket 3.0 17:44:25 10° N 17:48:49 73° E 17:53:13 10° SSE
SKYMED 2 4.2 17:45:43 10° NNE 17:49:45 36° E 17:53:44 10° SSE
Cosmos 2366 rocket 4.0 17:44:33 10° N 17:50:57 79° E 17:57:15 10° S
CZ-3B DEB 2.1 17:51:12 10° SW 17:54:47 84° NW 18:02:20 15° NE
Cosmos 2218 Rocket 4.1 17:49:16 10° N 17:55:36 84° W 18:01:48 10° S
MSX 3.8 17:52:43 10° SSE 17:58:27 81° ENE 18:04:14 10° NNW
Thor Agena Rocket 4.0 17:56:41 10° N 18:01:50 64° WNW 18:07:01 10° SSW
CZ-4 R/B 3.0 17:58:50 10° SSW 18:02:46 39° W 18:06:41 10° NNW
Abrixas 3.7 18:00:48 10° NW 18:03:21 25° NNE 18:03:36 25° NNE
SMAP 3.8 17:59:06 10° S 18:03:39 56° W 18:08:15 10° NNW
Cosmos 2278 Rocket 2.1 17:58:25 10° SSW 18:04:03 79° ESE 18:09:20 12° NNE
SL-24 DEB 4.2 17:59:50 10° N 18:04:36 72° E 18:09:16 10° S
Cosmos 1238 Rocket 3.0 18:04:34 10° SSW 18:07:25 48° W 18:10:23 10° N
OTV 4 3.5 18:06:27 10° SW 18:07:36 12° SSW 18:08:45 10° S
BREEZE-M R/B 4.3 17:57:41 10° SW 18:09:02 86° SSE 18:12:20 25° ENE
Timation 2 Rocket 4.3 18:03:12 10° NNW 18:09:48 49° ENE 18:16:26 10° SE
CZ-2C R/B 3.4 18:05:07 10° S 18:09:55 50° W 18:14:54 10° NNW
Cosmos 1975 2.7 18:07:05 10° N 18:11:11 85° E 18:15:13 10° S
Meteor 1-12 Rocket 4.4 18:06:11 10° NNW 18:12:00 82° W 18:17:53 10° S
MONITOR-E 4.4 18:09:37 10° S 18:12:47 75° WSW 18:15:59 10° NNW
Cosmos 2251 Rocket 4.1 18:08:16 10° NNW 18:13:32 60° WSW 18:18:44 10° S
Genesis I 3.1 18:18:01 10° NNW 18:21:57 63° NE 18:23:19 37° ESE
NOAA 12 4.2 18:20:38 10° SE 18:25:43 52° ENE 18:30:50 10° N
Cosmos 1821 Rocket 4.1 18:19:54 10° N 18:25:45 45° ENE 18:31:33 10° SSE
OE (NEXTSAT) 4.4 18:22:22 10° SW 18:25:56 67° SSE 18:26:20 60° ESE
Cosmos 1484 Rocket 3.0 18:25:16 10° S 18:28:59 65° W 18:32:43 10° NNW
SL-8 R/B 3.7 18:24:29 10° WSW 18:29:16 76° NNW 18:30:50 42° NE
Cosmos 2082 Rocket 2.2 18:23:46 10° NNW 18:29:20 54° ENE 18:33:41 16° SE
DMSP B5D1-3 4.4 18:25:25 14° NNE 18:29:55 73° ESE 18:35:02 10° S
Cosmos 1833 Rocket 2.8 18:25:29 10° NNW 18:30:57 47° ENE 18:33:05 32° ESE
Meteor 1-13 Rocket 4.1 18:26:03 10° S 18:31:39 70° E 18:37:11 11° NNE
Meteor 2-21 4.4 18:26:20 10° N 18:32:33 89° W 18:38:41 10° S
METEOR-M 4.2 18:28:41 10° SE 18:33:51 52° ENE 18:39:02 10° N
NOSS 2-1 (D) 4.1 18:30:39 10° S 18:33:30 35° SE 18:33:30 35° SE
NOSS 2-1 (C) 4.2 18:31:21 10° S 18:34:09 34° SE 18:34:09 34° SE
COSMO-SKYMED 1 2.9 18:34:05 13° N 18:37:50 66° WNW 18:42:08 10° SSW
Cosmos 1500 4.1 18:37:35 10° NNW 18:41:17 49° W 18:45:00 10° S
Meteor 1-28 Rocket 3.1 18:45:29 87° NW 18:45:31 87° WNW 18:49:18 10° SSW
Nadezhda 3 Rocket 4.1 18:42:31 10° SSW 18:48:43 78° W 18:55:01 10° N
SL-24 R/B - RUBIN 2 4.5 18:45:22 10° SSW 18:51:41 86° WNW 18:54:43 36° NNE
NOSS 2-1 (E) 4.3 18:49:38 10° SSW 18:52:08 37° S 18:52:08 37° S
Timation 1 Rocket 4.2 18:47:49 10° SSW 18:53:46 77° ESE 18:55:27 49° NE
Meteor 2-14 Rocket 4.5 18:48:24 10° N 18:54:34 81° W 19:00:42 10° S
GEOS 3 Rocket 3.7 18:53:31 20° SSE 18:57:09 71° SW 19:02:17 10° NW
Meteor 2-4 Rocket 3.4 18:53:14 10° S 18:58:30 68° ESE 18:58:30 68° ESE
Tiangong 1 3.4 18:55:57 10° WSW 18:57:12 22° SW 18:57:12 22° SW
USA 234 4.4 19:03:52 24° NNE 19:06:30 33° NNW 19:12:11 10° W
Cosmos 1025 Rocket 4.2 19:04:52 10° S 19:07:27 35° SSW 19:07:27 35° SSW
ATLAS 3B CENTAUR R/B 4.1 18:57:45 10° WSW 19:12:34 36° SSW 19:15:58 26° SSE
Cosmos 921 Rocket 3.8 19:10:56 10° SSW 19:14:35 48° W 19:14:35 48° W
ISS -0.1 19:14:47 10° NW 19:14:53 10° NW 19:14:53 10° NW
BREEZE M DEB (TANK) 3.7 19:16:40 10° NW 19:20:58 73° NNE 19:21:53 65° ENE
Cosmos 1371 Rocket 4.3 19:15:42 10° SSW 19:20:09 62° SSW 19:20:09 62° SSW
NOSS 3-4 (A) 3.7 19:15:21 10° NNW 19:21:59 65° NE 19:21:59 65° NE
NOSS 3-4 (C) 3.7 19:15:28 10° NNW 19:22:03 64° NNE 19:22:03 64° NNE
Cosmos 2278 Rocket 4.5 19:45:03 10° W 19:48:48 18° NW 19:51:13 14° NNW
Cosmos 2082 Rocket 4.4 20:08:47 10° NW 20:12:58 21° W 20:15:49 15° SW
CZ-3B DEB 4.3 20:25:22 10° WNW 20:30:57 40° N 20:30:57 40° N
